User: anonymous   Login
Location: Cicognara
(44.9500°N, 10.4667°E)
Time: 16:42:24
(UTC+00:00)
Language:

Resurs 01 Rocket - Orbit

View from above orbital plane
View from above orbital plane
View from above satellite
View from above satellite

Ground track
Ground track

The orbit data is extracted from the following two-line orbital elements,

1 23343U 94074B   21269.65663737  .00000095  00000-0  20773-4 0  9999
2 23343  97.9354 322.6890 0008279  88.9266  27.7505 14.76902408447225
Epoch (UTC): 26 September 2021 15:45:33
Eccentricity: 0.0008279
inclination: 97.9354°
perigee height: 633 km
apogee height: 645 km
right ascension of ascending node: 322.6890°
argument of perigee: 88.9266°
revolutions per day: 14.76902408
mean anomaly at epoch: 27.7505°
orbit number at epoch: 44722

The dashed part of the orbit path shows where the satellite is in the earth's shadow,  

DLR